Location: Allonne
(49.4086°N, 2.1143°E)
Time: 07:47:56
(UTC+00:00)

DMSP B5D2-2 - Pass Details

Date: 05 August 2024
Orbit: 787 x 802 km, 98.3° (Epoch: 08 September)

Event Time Altitude Azimuth Distance (km) Brightness Sun altitude
Rises 02:06:56 0° 125° (SE) 3,282 7.2 -17.8°
Reaches altitude 10° 02:09:37 10° 113° (ESE) 2,354 6.6 -17.6°
Maximum altitude 02:13:44 25° 60° (ENE) 1,574 6.4 -17.2°
Drops below altitude 10° 02:17:51 10° 7° (N) 2,362 7.5 -16.8°
Sets 02:20:33 0° 355° (N) 3,295 8.1 -16.6°
